"Time","Temp","Dewpoint","Humidity","Pressure","Direction","Speed","Gust","Precip","PrecipRate"
"00:04:58","57.4","53.8","87.7","30.17","144","0","0","0.00","0.00"
"00:09:58","57.2","53.7","88","30.17","144","0","0","0.00","0.00"
"00:14:56","57","53.5","88","30.17","144","0","1.2","0.00","0.00"
"00:19:55","56.9","53.7","89","30.17","144","0","0","0.00","0.00"
"00:24:59","56.9","53.7","89","30.17","144","0","0","0.00","0.00"
"00:29:58","56.8","53.6","89","30.17","144","0.5","2.4","0.00","0.00"
"00:34:56","56.7","53.5","89","30.17","144","0.7","2.4","0.00","0.00"
"00:39:56","56.6","53.4","89","30.17","144","0.2","1.2","0.00","0.00"
"00:44:56","56.4","53.2","89","30.17","144","0","0","0.00","0.00"
"00:49:59","56.3","53.1","89","30.17","144","0","0","0.00","0.00"
"00:54:58","56","52.8","89","30.17","144","0","0","0.00","0.00"
"00:59:57","55.8","52.7","89.2","30.18","144","0","0","0.00","0.00"
"01:04:58","55.6","52.7","90","30.18","144","0","0","0.00","0.00"
"01:09:57","55.5","52.6","90","30.18","144","0","0","0.00","0.00"
"01:14:57","55.3","52.5","90.5","30.18","144","0","0","0.00","0.00"
"01:19:56","55.2","52.6","91","30.18","144","0","0","0.00","0.00"
"01:24:56","55.1","52.5","91","30.18","144","0","0","0.00","0.00"
"01:29:59","54.9","52.3","91","30.18","144","0","0","0.00","0.00"
"01:34:58","54.8","52.2","91","30.17","144","0","0","0.00","0.00"
"01:39:58","54.5","51.9","91","30.17","144","0","0","0.00","0.00"
"01:44:57","54.3","51.7","91","30.18","144","0","0","0.00","0.00"
"01:49:56","54.1","51.5","91","30.18","144","0","0","0.00","0.00"
"01:54:56","53.9","51.4","91.5","30.18","144","0","0","0.00","0.00"
"01:59:59","53.7","51.6","92.5","30.18","144","0","0","0.00","0.00"
"02:04:59","53.7","51.6","92.9","30.17","144","0","0","0.00","0.00"
"02:09:59","53.5","51.4","92.6","30.17","144","0","0","0.00","0.00"
"02:14:59","53.3","51.3","93","30.17","144","0","0","0.00","0.00"
"02:19:58","53.1","51.1","93","30.17","144","0","0","0.00","0.00"
"02:24:57","52.9","50.9","93","30.17","144","0","0","0.00","0.00"
"02:29:57","52.7","50.8","93.3","30.17","144","0","0","0.00","0.00"
"02:34:56","52.6","50.9","93.8","30.17","144","0","0","0.00","0.00"
"02:39:56","52.6","50.9","94","30.17","144","0","0","0.00","0.00"
"02:44:59","52.4","50.7","94","30.17","144","0","0","0.00","0.00"
"02:49:59","52.3","50.6","94","30.17","144","0","0","0.00","0.00"
"02:54:58","52.2","50.5","94","30.17","144","0","0","0.00","0.00"
"02:59:56","51.9","50.2","94","30.17","144","0","0","0.00","0.00"
"03:04:58","51.8","50.1","94","30.17","144","0","0","0.00","0.00"
"03:09:58","51.6","49.9","94","30.17","144","0","0","0.00","0.00"
"03:14:58","51.5","49.8","94.1","30.17","144","0","0","0.00","0.00"
"03:19:57","51.4","50","95","30.17","144","0","0","0.00","0.00"
"03:24:56","51.3","49.9","95","30.17","144","0","0","0.00","0.00"
"03:29:59","51","49.4","94.1","30.17","144","0","0","0.00","0.00"
"03:34:57","50.8","49.2","94.2","30.17","144","0","0","0.00","0.00"
"03:39:57","50.7","49.3","95","30.17","144","0","0","0.00","0.00"
"03:44:56","50.6","49.2","95","30.17","144","0","0","0.00","0.00"
"03:49:57","50.5","49.1","95","30.16","144","0","0","0.00","0.00"
"03:54:58","50.5","49.1","95","30.16","144","0","0","0.00","0.00"
"03:59:57","50.5","49.1","95.2","30.16","144","0","0","0.00","0.00"
"04:04:57","50.4","49","95","30.16","144","0","0","0.00","0.00"
"04:09:56","50.2","48.8","95","30.16","144","0","0","0.00","0.00"
"04:14:56","50","48.6","95","30.16","144","0","0","0.00","0.00"
"04:19:59","49.8","48.4","95","30.16","144","0","0","0.00","0.00"
"04:24:58","49.7","48.5","95.6","30.16","144","0","0","0.00","0.00"
"04:29:57","49.7","48.5","95.8","30.17","144","0","0","0.00","0.00"
"04:34:56","49.7","48.6","96","30.17","144","0","0","0.00","0.00"
"04:39:56","49.9","48.8","96","30.17","144","0","0","0.00","0.00"
"04:44:59","50","48.9","96","30.17","144","0","0","0.00","0.00"
"04:49:58","49.7","48.5","95.7","30.17","144","0","0","0.00","0.00"
"04:54:57","49.3","48","95.3","30.17","144","0","0","0.00","0.00"
"04:59:59","49.1","48","96","30.18","144","0","0","0.00","0.00"
"05:04:56","49.2","48.1","96","30.18","144","0","0","0.00","0.00"
"05:09:59","49.4","48.3","96","30.18","144","0","0","0.00","0.00"
"05:14:59","49.4","48.3","96","30.18","144","0","0","0.00","0.00"
"05:19:58","49.4","48.3","96","30.18","144","0","0","0.00","0.00"
"05:24:58","49.5","48.4","96","30.18","144","0","0","0.00","0.00"
"05:29:57","49.4","48.3","96","30.19","144","0","0","0.00","0.00"
"05:34:56","49.3","48.2","96","30.19","144","0","0","0.00","0.00"
"05:39:59","49.2","48.1","96","30.19","144","0","0","0.00","0.00"
"05:44:58","49","47.9","96","30.19","343","0","0","0.00","0.00"
"05:49:58","49","47.9","96","30.19","343","0","0","0.00","0.00"
"05:54:56","49","47.9","96","30.19","343","0","0","0.00","0.00"
"05:59:56","48.8","47.7","96","30.20","343","0","0","0.00","0.00"
"06:04:56","48.7","47.6","96","30.20","343","0","0","0.00","0.00"
"06:09:57","48.7","47.7","96.2","30.20","343","0","0","0.00","0.00"
"06:14:57","48.7","47.6","96.2","30.20","20","0","0","0.00","0.00"
"06:19:56","48.6","47.5","96","30.20","20","0","0","0.00","0.00"
"06:24:58","48.6","47.5","96","30.20","20","0","0","0.00","0.00"
"06:29:56","48.6","47.7","96.5","30.20","20","0","0","0.00","0.00"
"06:34:58","48.8","48","97","30.20","20","0.3","1.2","0.00","0.00"
"06:39:57","49.1","48.3","97","30.20","20","0","1.2","0.00","0.00"
"06:44:56","49.3","48.5","97","30.21","20","0","0","0.00","0.00"
"06:49:58","49.3","48.5","97","30.21","20","0","0","0.00","0.00"
"06:54:57","49.4","48.6","97","30.21","20","0","1.2","0.00","0.00"
"06:59:56","49.6","48.8","97","30.21","25","0","1.2","0.00","0.00"
"07:04:59","50","49.3","97.2","30.21","28","0.4","2.4","0.00","0.00"
"07:09:59","50.5","50","97.8","30.21","28","0","0","0.00","0.00"
"07:14:58","51.1","50.4","97.5","30.21","28","0","0","0.00","0.00"
"07:19:57","51.6","51.1","98","30.21","28","0","0","0.00","0.00"
"07:24:56","52.3","51.8","98","30.21","28","0","0","0.00","0.00"
"07:29:58","52.9","52.4","98","30.21","28","0","0","0.00","0.00"
"07:34:57","53.4","52.9","98","30.21","28","0","0","0.00","0.00"
"07:39:56","54","53.4","98","30.21","28","0","0","0.00","0.00"
"07:44:58","54.4","53.6","97","30.22","79","0","0","0.00","0.00"
"07:49:57","54.8","54","97","30.22","79","0","0","0.00","0.00"
"07:54:59","55.1","54","96.1","30.22","78","0","0","0.00","0.00"
"07:59:58","55.6","54.3","95.4","30.22","56","0.1","2.4","0.00","0.00"
"08:04:58","56.1","54.2","93.5","30.21","35","1.6","4.8","0.00","0.00"
"08:09:57","56.7","53.9","90.5","30.21","13","1.2","4.6","0.00","0.00"
"08:14:56","57.5","54.6","90.1","30.21","14","0","1.2","0.00","0.00"
"08:19:59","58.2","54.5","87.3","30.21","10","0.3","4.8","0.00","0.00"
"08:24:58","58.9","54.3","84.7","30.21","11","0.7","4.6","0.00","0.00"
"08:29:56","59.5","54.3","82.9","30.21","11","0.3","2.4","0.00","0.00"
"08:34:57","60.1","54.2","80.9","30.21","358","1.5","6","0.00","0.00"
"08:39:56","60.8","54.4","79.5","30.21","17","0.8","4.8","0.00","0.00"
"08:44:59","61.6","54.3","77.2","30.21","37","0.9","4.6","0.00","0.00"
"08:49:57","62.1","53.6","73.9","30.20","54","1.1","6","0.00","0.00"
"08:54:59","62.3","53.2","72.1","30.20","21","0.7","3.6","0.00","0.00"
"08:59:57","62.6","52.2","68.9","30.20","18","0.6","3.6","0.00","0.00"
"09:04:57","62.7","52","68.1","30.20","38","1.3","2.4","0.00","0.00"
"09:09:56","62.8","51.5","66.4","30.20","38","0.5","2.3","0.00","0.00"
"09:14:59","63.3","51.5","65.3","30.21","37","0.3","1.2","0.00","0.00"
"09:19:57","63.8","50.4","61.9","30.21","351","0.9","3.6","0.00","0.00"
"09:24:59","64","51.6","64","30.21","324","0.7","4.8","0.00","0.00"
"09:29:57","64.3","50.3","60.3","30.21","337","1.9","6","0.00","0.00"
"09:34:56","64.7","50.7","60.6","30.20","334","0.9","3.6","0.00","0.00"
"09:39:58","65.3","51.2","60.4","30.20","95","0.5","2.4","0.00","0.00"
"09:44:56","65.8","51.7","60.4","30.20","39","0.9","2.4","0.00","0.00"
"09:49:59","65.9","52.4","61.7","30.20","109","0.6","3.6","0.00","0.00"
"09:54:57","66.1","52.5","61.5","30.20","93","0.9","4.8","0.00","0.00"
"09:59:59","66.3","52.4","60.8","30.20","336","1.7","6","0.00","0.00"
"10:04:59","66.3","52.2","60.4","30.20","352","1.9","7.2","0.00","0.00"
"10:09:58","66.4","52.7","61.4","30.20","337","1","6","0.00","0.00"
"10:14:57","66.7","51.3","57.6","30.20","357","2.4","6","0.00","0.00"
"10:19:59","67","51.8","58.2","30.20","355","1.7","4.8","0.00","0.00"
"10:24:58","67.4","51.7","57.1","30.20","5","0.8","3.6","0.00","0.00"
"10:29:57","67.8","50.7","54.4","30.20","12","1.6","8.4","0.00","0.00"
"10:34:57","68.1","51.4","55.1","30.20","337","2","6","0.00","0.00"
"10:39:58","68.4","51.2","54.2","30.20","333","1","2.4","0.00","0.00"
"10:44:57","68.4","51.1","54","30.20","57","2.1","6","0.00","0.00"
"10:49:57","68","51.2","55.1","30.20","48","1.4","3.6","0.00","0.00"
"10:54:59","68.2","50.8","53.8","30.20","130","1.2","3.6","0.00","0.00"
"10:59:57","69","51.1","53","30.20","98","0.6","2.4","0.00","0.00"
"11:04:57","69.1","51.5","53.5","30.20","349","2","6","0.00","0.00"
"11:09:56","69.4","52.3","54.8","30.20","354","2","6","0.00","0.00"
"11:14:56","70","52.8","54.3","30.20","17","1.3","7.2","0.00","0.00"
"11:19:58","70.3","52.6","53.4","30.19","31","1.4","4.8","0.00","0.00"
"11:24:57","70.2","53.2","54.9","30.19","109","1.7","4.8","0.00","0.00"
"11:29:59","70.1","50.9","50.5","30.20","107","1.5","3.6","0.00","0.00"
"11:34:57","70.5","51.9","51.9","30.20","100","1.5","3.6","0.00","0.00"
"11:39:59","70.9","52.7","52.6","30.20","96","1.8","7.2","0.00","0.00"
"11:44:58","71.2","52.2","51.3","30.20","130","1.8","6.9","0.00","0.00"
"11:49:56","71.5","52.6","51.3","30.19","123","2.4","4.8","0.00","0.00"
"11:54:59","71","52.2","51.4","30.19","117","1.7","6","0.00","0.00"
"11:59:57","71.2","52.1","51","30.19","315","3.6","7.2","0.00","0.00"
"12:04:56","72.2","52.9","50.7","30.19","359","1.5","7.2","0.00","0.00"
"12:09:56","72.8","51.9","47.9","30.19","26","1.1","3.6","0.00","0.00"
"12:14:59","72.4","51.3","47.4","30.19","288","2.2","6","0.00","0.00"
"12:19:57","72.5","52.2","48.8","30.19","54","2.6","7.2","0.00","0.00"
"12:24:56","72.7","52.7","49.5","30.19","335","2.9","8.4","0.00","0.00"
"12:29:58","73.7","53.4","49.1","30.19","332","3","8.4","0.00","0.00"
"12:34:56","73.1","52.9","49.1","30.19","294","1.9","5.8","0.00","0.00"
"12:39:56","73.3","52.8","48.8","30.19","288","1.2","4.8","0.00","0.00"
"12:44:58","74.3","53.6","48.5","30.19","314","1.5","4.8","0.00","0.00"
"12:49:57","75","54","48.1","30.18","289","1","2.4","0.00","0.00"
"12:54:59","74.5","52","45.5","30.18","194","1.3","4.8","0.00","0.00"
"12:59:58","74.6","52.1","45.4","30.18","326","2","6","0.00","0.00"
"13:04:58","74.7","54.1","48.8","30.18","333","0.9","3.5","0.00","0.00"
"13:09:57","75.7","53.8","46.6","30.18","277","1.8","4.8","0.00","0.00"
"13:14:56","74.9","51.5","44","30.18","142","1.1","3.5","0.00","0.00"
"13:19:59","75.3","54.3","48.2","30.17","121","2.4","7.2","0.00","0.00"
"13:24:57","75.2","50.7","42.3","30.17","121","3.3","8.4","0.00","0.00"
"13:29:59","74.7","50.4","42.6","30.17","135","2.4","6","0.00","0.00"
"13:34:58","75.2","50.5","42","30.17","157","2.2","6","0.00","0.00"
"13:39:56","76","53.8","46.3","30.17","119","2.5","7.2","0.00","0.00"
"13:44:59","76.5","53.3","44.5","30.17","9","1.9","6","0.00","0.00"
"13:49:58","76.6","53","44","30.16","77","1.8","6","0.00","0.00"
"13:54:57","77.1","53.2","43.6","30.16","354","1.5","5.8","0.00","0.00"
"13:59:59","77.5","51.4","40.3","30.16","17","1.4","6","0.00","0.00"
"14:04:59","76.3","50.3","40.2","30.16","173","1.3","3.6","0.00","0.00"
"14:09:59","76.4","49.9","39.4","30.16","109","1.1","2.4","0.00","0.00"
"14:14:58","77","50.1","39.1","30.16","39","1.2","3.6","0.00","0.00"
"14:19:56","77.5","54.1","44.6","30.15","53","1.5","3.6","0.00","0.00"
"14:24:59","78.2","51.5","39.5","30.15","103","1.6","3.6","0.00","0.00"
"14:29:57","77.5","50.3","38.7","30.15","89","2.3","7.2","0.00","0.00"
"14:34:56","77","50.6","39.7","30.15","137","1.8","4.8","0.00","0.00"
"14:39:56","77.8","51","39.2","30.15","135","0.5","2.4","0.00","0.00"
"14:44:59","77.9","51.5","39.9","30.15","121","1.3","4.8","0.00","0.00"
"14:49:57","78.2","52","40.2","30.14","104","1.9","4.8","0.00","0.00"
"14:54:57","78.9","53","40.7","30.14","57","1.6","6","0.00","0.00"
"14:59:56","78.7","49.8","36.5","30.14","97","2.1","6","0.00","0.00"
"15:04:59","78.2","49.9","37.3","30.14","138","1.7","3.6","0.00","0.00"
"15:09:59","78.3","51.2","38.9","30.14","144","0.8","3.6","0.00","0.00"
"15:14:57","78.2","50.2","37.6","30.14","121","2.3","8.4","0.00","0.00"
"15:19:56","78.4","49.7","36.6","30.14","50","1.5","8.1","0.00","0.00"
"15:24:58","78.4","48.3","34.8","30.14","317","1.1","3.6","0.00","0.00"
"15:29:57","78.7","52.8","40.9","30.14","304","1.5","10.8","0.00","0.00"
"15:34:57","79","49.1","35.2","30.13","126","2.9","13.2","0.00","0.00"
"15:39:58","79","50.9","37.5","30.13","78","1.4","2.4","0.00","0.00"
"15:44:57","78.7","49.3","35.8","30.13","141","1.9","4.8","0.00","0.00"
"15:49:59","78.5","48.9","35.4","30.13","128","2.6","6","0.00","0.00"
"15:54:59","79","50.6","37.1","30.13","130","0.7","4.6","0.00","0.00"
"15:59:59","79.1","50.1","36.3","30.13","342","1.3","4.8","0.00","0.00"
"16:04:56","79.4","49.9","35.9","30.13","145","3.3","8.4","0.00","0.00"
"16:09:57","79.4","50.9","37.1","30.13","150","1.9","5.8","0.00","0.00"
"16:14:58","79.3","49.6","35.4","30.13","143","2","6","0.00","0.00"
"16:19:58","79.2","50.3","36.5","30.13","130","2.2","4.8","0.00","0.00"
"16:24:59","79","50.1","36.4","30.13","139","2.2","4.8","0.00","0.00"
"16:29:59","79.3","51.9","38.5","30.13","143","0.8","4.6","0.00","0.00"
"16:34:59","79.9","51.1","36.8","30.12","146","1.8","4.8","0.00","0.00"
"16:39:56","79.8","50.5","36.1","30.12","322","1.7","4.8","0.00","0.00"
"16:44:58","79.7","50.1","35.7","30.12","154","1.7","4.8","0.00","0.00"
"16:49:56","79.7","50","35.6","30.11","126","2.4","6","0.00","0.00"
"16:54:57","79.6","49.4","34.9","30.11","24","2.8","7.2","0.00","0.00"
"16:59:58","79.9","50","35.4","30.11","123","1.5","6","0.00","0.00"
"17:04:56","79.9","49.9","35.1","30.11","152","1.8","4.8","0.00","0.00"
"17:09:57","80.1","49.7","34.7","30.11","120","1.1","2.4","0.00","0.00"
"17:14:58","79.9","48.9","33.9","30.11","99","1.5","4.8","0.00","0.00"
"17:19:58","79.6","48.5","33.7","30.11","100","1.2","3.6","0.00","0.00"
"17:24:58","79.3","48.9","34.6","30.11","142","1.5","4.8","0.00","0.00"
"17:29:58","79.3","47.6","32.9","30.11","135","1.6","6","0.00","0.00"
"17:34:56","79.4","48.3","33.6","30.11","131","1.3","3.6","0.00","0.00"
"17:39:56","79.4","48.2","33.5","30.11","61","1","2.4","0.00","0.00"
"17:44:57","79.4","48","33.4","30.11","50","0.8","4.8","0.00","0.00"
"17:49:57","79.4","48.3","33.7","30.11","100","1.7","7.2","0.00","0.00"
"17:54:57","79.2","46.9","32.1","30.11","127","2","4.8","0.00","0.00"
"17:59:57","79","46.9","32.5","30.11","134","2","6","0.00","0.00"
"18:04:57","78.7","47.5","33.4","30.11","137","1.6","5.8","0.00","0.00"
"18:09:57","78.5","47.4","33.4","30.11","141","0.5","2.4","0.00","0.00"
"18:14:56","78.4","46.4","32.4","30.11","118","1.2","3.6","0.00","0.00"
"18:19:58","78.3","47.2","33.5","30.10","121","1.6","3.6","0.00","0.00"
"18:24:57","78.2","47.1","33.5","30.10","118","2.4","4.8","0.00","0.00"
"18:29:59","78.1","47","33.6","30.10","120","2.2","4.8","0.00","0.00"
"18:34:58","77.9","46.7","33.3","30.10","120","1","3.6","0.00","0.00"
"18:39:57","77.7","47.3","34.3","30.10","109","0.9","2.4","0.00","0.00"
"18:44:59","77.4","46.8","34","30.10","112","1.6","4.8","0.00","0.00"
"18:49:59","77.1","47.4","35.1","30.10","132","2.4","4.8","0.00","0.00"
"18:54:58","76.9","46.9","34.7","30.10","134","1.4","4.6","0.00","0.00"
"18:59:56","76.6","47","35.2","30.10","133","0.8","2.4","0.00","0.00"
"19:04:56","76.4","46.8","35.2","30.10","130","1.3","3.6","0.00","0.00"
"19:09:59","76.3","46.4","34.6","30.10","131","1.5","3.6","0.00","0.00"
"19:14:59","76.2","46.7","35.2","30.10","131","1.1","3.6","0.00","0.00"
"19:19:57","76.1","46.7","35.4","30.10","131","1","3.6","0.00","0.00"
"19:24:56","75.8","46.8","35.9","30.10","128","1.1","3.5","0.00","0.00"
"19:29:58","75.4","46.9","36.3","30.11","129","0.9","3.6","0.00","0.00"
"19:34:56","75.1","46.6","36.3","30.11","259","1.2","3.6","0.00","0.00"
"19:39:57","74.8","46.4","36.4","30.11","160","1.1","3.6","0.00","0.00"
"19:44:55","74.5","46.8","37.4","30.11","160","1.1","3.6","0.00","0.00"
"19:49:58","74.2","47.1","38.2","30.10","169","0.4","2.3","0.00","0.00"
"19:54:56","73.8","47.1","38.7","30.10","327","0.3","1.2","0.00","0.00"
"19:59:59","73.5","47.1","39.2","30.10","329","0.3","2.4","0.00","0.00"
"20:04:59","73.1","47","39.5","30.10","331","0","0","0.00","0.00"
"20:09:58","72.8","47.2","40.2","30.10","331","0","1.2","0.00","0.00"
"20:14:59","72.5","46.6","39.7","30.10","331","0","0","0.00","0.00"
"20:19:58","72.2","46.3","39.8","30.10","331","0.1","1.2","0.00","0.00"
"20:24:57","71.7","46.8","41","30.10","331","0.1","1.2","0.00","0.00"
"20:29:56","71.1","47.7","43.4","30.10","331","0","0","0.00","0.00"
"20:34:59","70.3","46.4","42.5","30.10","331","0.1","1.2","0.00","0.00"
"20:39:59","69.6","47.3","45","30.10","331","0","1.2","0.00","0.00"
"20:44:59","68.7","48.1","47.7","30.10","331","0","0","0.00","0.00"
"20:49:58","68","48.8","50.4","30.10","331","0","0","0.00","0.00"
"20:54:56","67.3","47.9","49.9","30.10","331","0","1.2","0.00","0.00"
"20:59:59","66.5","47.2","50","30.11","331","0.6","1.2","0.00","0.00"
"21:04:59","65.8","46.3","49.4","30.11","331","0","1.2","0.00","0.00"
"21:09:59","65.3","46.8","51.1","30.11","331","0","0","0.00","0.00"
"21:14:59","64.8","48","54.5","30.11","331","0","0","0.00","0.00"
"21:19:58","64.1","46.8","53.3","30.11","331","0","0","0.00","0.00"
"21:24:57","63.5","46.8","54.6","30.11","331","0","0","0.00","0.00"
"21:29:56","62.9","46.9","55.8","30.11","331","0","1.2","0.00","0.00"
"21:34:59","62.5","47.5","58","30.11","331","0","1.2","0.00","0.00"
"21:39:58","62.1","48.3","60.6","30.11","331","0","0","0.00","0.00"
"21:44:58","61.6","48.4","62","30.12","331","0.3","2.4","0.00","0.00"
"21:49:57","61","48.3","62.8","30.12","331","0","2.3","0.00","0.00"
"21:54:56","60.6","48.4","64.1","30.12","331","0.3","2.4","0.00","0.00"
"21:59:59","60.2","48.4","65","30.13","331","0","1.2","0.00","0.00"
"22:04:56","60","48.5","66","30.13","331","0","0","0.00","0.00"
"22:09:59","59.6","48.6","67.1","30.13","331","0","1.2","0.00","0.00"
"22:14:59","59.2","49","68.9","30.13","331","0","1.2","0.00","0.00"
"22:19:59","59","49.2","69.9","30.13","331","0","0","0.00","0.00"
"22:24:58","58.7","49.1","70.3","30.13","331","0","0","0.00","0.00"
"22:29:57","58.3","49.2","71.6","30.14","331","0","0","0.00","0.00"
"22:34:56","58","49.4","73.1","30.14","331","0","1.2","0.00","0.00"
"22:39:56","57.8","49.3","73.2","30.14","331","0","0","0.00","0.00"
"22:44:59","57.7","49.6","74.3","30.14","331","0","0","0.00","0.00"
"22:49:59","57.7","49.8","74.9","30.13","331","0","0","0.00","0.00"
"22:54:58","57.6","49.7","74.8","30.13","331","0","0","0.00","0.00"
"22:59:59","57.4","49.5","75","30.13","331","0","0","0.00","0.00"
"23:04:58","57.2","49.4","75.3","30.13","331","0","0","0.00","0.00"
"23:09:58","56.9","49.6","76.4","30.13","331","0","0","0.00","0.00"
"23:14:57","56.6","49.5","77","30.13","331","0","0","0.00","0.00"
"23:19:56","56.5","49.4","77","30.13","331","0","0","0.00","0.00"
"23:24:59","56.4","49.3","77","30.13","331","0.3","2.4","0.00","0.00"
"23:29:58","56.3","49.2","77","30.13","331","0.4","2.3","0.00","0.00"
"23:34:57","56.2","49.1","77","30.13","331","0.7","1.2","0.00","0.00"
"23:39:56","56.2","49.1","77","30.13","331","0.2","1.2","0.00","0.00"
"23:44:59","56.1","49.2","77.8","30.13","331","0","1.2","0.00","0.00"
"23:49:58","55.8","49","78","30.13","331","0","0","0.00","0.00"
"23:54:57","55.6","49.1","78.7","30.13","331","0","0","0.00","0.00"
